Location: Grust
(42.8833°N, 0.0333°W)
Time: 14:42:29
(UTC+00:00)

GENESIS II - Pass Details

Date: 25 October 2020
Orbit: 490 x 537 km, 64.5° (Epoch: 25 November)

Event Time Altitude Azimuth Distance (km) Brightness Sun altitude
Rises 17:39:59 0° 208° (SSW) 2,664 8.4 -7.7°
Reaches altitude 10° 17:42:09 10° 206° (SSW) 1,782 7.4 -8.1°
Maximum altitude 17:46:09 73° 122° (ESE) 565 4.2 -8.8°
Drops below altitude 10° 17:50:10 10° 38° (NE) 1,800 6.5 -9.5°
Enters shadow 17:51:15 - 37° (NE) 2,237 7.0 -9.7°
